NOAA 16 DEB, 41046

Orbit data source: Space-Track

NOAA 16 DEB, 41046 is space debris in LEO originally from a launch on Thu, 21 Sep 2000 UTC launched from the Air Force Western Test Range (AFWTR). Debris objects in space refer to the collection of defunct objects orbiting the Earth. Examples of debris include non-operational satellites, rocket bodies, and fragments generated from explosions, collisions, or faulty payload assembly.

Loading next visibility...
NOAA 16 DEB details
Identifier
41046, 2000-055D
Orbit
LEO
Last TLE update1 day ago
Origin
Flag of USNOAA (US)
ManufacturerUnknown
MissionSpacecraft
Bus & MotorUnknown
MassUnknown
Launch date (UTC)
2000-09-21 (24 years ago)
Launch vehicleUnknown
Launch site
Air Force Western Test Range (AFWTR)
Object type
Payload
Rocket body
Debris
Shape & HBRUnknown
Radar Cross SectionSmall (<0.1 m²)

Expand to show TLE details & history

TLE from 1 day ago
0 NOAA 16 DEB
1 41046U 00055D   24348.12921478  .00001319  00000-0  66745-3 0  9995
2 41046  98.6754  55.7823 0013796 107.7514 252.5168 14.17742237467360
Epoch: 2024-12-13T03:06Z
Definitive object data (Epoch: 2024-12-13T03:06:04.156Z)
Latitude-0.00007°
Longitude-73.03463°
Altitude838.913 km
Speed7.432 km/s
True Right ascension03h 43m 07s
True Declination0° 00' 00"
Sunlit
Object was in full shadow at TLE epoch
Visualization TLE readout
Latitude-8.04145°
Longitude106.8064°
Altitude836.134 km
Speed7.435 km/s
Apparent Right ascension15h 48m 10s
Apparent Declination-22° 51' 27"
Sunlit
Object is in daylight
Visualization observer readout
Local Sidereal Time03:56:27
Azimuth6.487° NNE
Elevation-72.851°
Doppler factor1
Orbital elements
Apogee altitude840.103 km
Perigee altitude820.214 km
Semi-major axis7,208.295 km
Eccentricity0.0013796
Inclination98.6754°
RAAN55.7823°
Arg. of periapsis107.7514°
True anomaly252.36609°
Mean anomaly252.5168°
Eccentric anomaly252.44144°
Mean motion3.54645 °/min
BSTAR0.00066745
Orbital period101.51 mins
Loading maneuver chart data...
Loading historical data...
Loading historical data...
Loading historical data...
Loading historical data...
Loading historical data...
Loading historical data...
Loading historical data...

NOAA 16 DEB Visibility forecast

Observer location: undefined°, undefined

Span
Click to sort rows by Start time (UTC) header in descending order
Start Az.
Max El. time (UTC)
Max El. Az.
Max El.
End time (UTC)
End Az.
8 mins2024-12-14 16:58:25.089Z42.012° NE2024-12-14 17:01:25.089Z93.411° ESE31.02°2024-12-14 17:06:25.089Z164.342° S
7 mins2024-12-14 18:38:25.089Z342.281° N2024-12-14 18:41:25.089Z300.251° NW24.711°2024-12-14 18:45:25.089Z242.648° WSW
8 mins2024-12-15 04:21:25.089Z145.639° SSE2024-12-15 04:25:25.089Z47.84° ENE40.069°2024-12-15 04:29:25.089Z356.044° N
|